This is the latest recevied weather packets stored in our database for station/object KI4MRC. If no packets are shown the sender has not sent any weather packets the latest 10 day(s).
| Time | Temp. | Humidity | Pressure | Rain* | Wind** | Luminosity | Snow |
|---|---|---|---|---|---|---|---|
| 1777735314 | 32.22° C | 64% | 1011.9 hPa | 0 mm | - | 825 W/m² | - |
| 1777735012 | 31.67° C | 62% | 1011.9 hPa | 0 mm | - | 740 W/m² | - |
| 1777734709 | 31.67° C | 61% | 1012 hPa | 0 mm | - | 809 W/m² | - |
| 1777734407 | 31.67° C | 63% | 1011.9 hPa | 0 mm | - | 785 W/m² | - |
| 1777734103 | 31.67° C | 65% | 1011.9 hPa | 0 mm | - | 762 W/m² | - |
| 1777733799 | 31.11° C | 65% | 1011.9 hPa | 0 mm | - | 706 W/m² | - |
| 1777733496 | 31.11° C | 65% | 1012 hPa | 0 mm | - | 641 W/m² | - |
| 1777733192 | 31.11° C | 65% | 1012 hPa | 0 mm | - | 703 W/m² | - |
| 1777732889 | 31.11° C | 65% | 1011.7 hPa | 0 mm | - | 715 W/m² | - |
| 1777732585 | 31.67° C | 68% | 1011.6 hPa | 0 mm | - | 626 W/m² | - |
| 1777732283 | 31.11° C | 68% | 1011.7 hPa | 0 mm | - | 673 W/m² | - |
| 1777731980 | 31.11° C | 67% | 1011.7 hPa | 0 mm | - | 642 W/m² | - |
| 1777731677 | 30.56° C | 68% | 1011.7 hPa | 0 mm | - | 646 W/m² | - |
| 1777731375 | 30.56° C | 67% | 1011.5 hPa | 0 mm | - | 614 W/m² | - |
| 1777731072 | 30° C | 71% | 1011.7 hPa | 0 mm | - | 560 W/m² | - |
| 1777730771 | 30° C | 71% | 1011.6 hPa | 0 mm | - | 527 W/m² | - |
| 1777730466 | 30.56° C | 73% | 1011.4 hPa | 0 mm | - | 504 W/m² | - |
| 1777730162 | 30° C | 73% | 1011.5 hPa | 0 mm | - | 545 W/m² | - |
| 1777729859 | 30° C | 75% | 1011.6 hPa | 0 mm | - | 511 W/m² | - |
| 1777729556 | 30° C | 75% | 1011.7 hPa | 0 mm | - | 395 W/m² | - |
| 1777729253 | 30° C | 75% | 1011.5 hPa | 0 mm | - | 508 W/m² | - |
| 1777728949 | 29.44° C | 77% | 1011.3 hPa | 0 mm | - | 470 W/m² | - |
| 1777728646 | 28.89° C | 77% | 1011.3 hPa | 0 mm | - | 438 W/m² | - |
| 1777728343 | 28.89° C | 79% | 1011.2 hPa | 0 mm | - | 381 W/m² | - |
| 1777728040 | 28.89° C | 78% | 1011.6 hPa | 0 mm | - | 333 W/m² | - |
* Rain latest hour (hover to see other rain measurements)
** Current wind speed in m/s (hover to see current wind gust speed)